Regional Weather Roundup
Issued by NWS

Home | Current Version | Previous Version | Text Only | Print | Product List | Glossary Off
Versions: 1 2 3 4 5 6 7 8 9 10 11 12 13 14 15 16 17 18 19 20 21 22 23 24 25 26 27 28

000
ASUS45 KSLC 200010
RWRUT

UTAH REGIONAL WEATHER ROUNDUP
NATIONAL WEATHER SERVICE SALT LAKE CITY UT
600 PM MDT SAT APR 19 2014

UTZ001>011-023>025-200100-

NORTHERN UTAH

CITY           SKY/WX    TMP DP  RH WIND       PRES   REMARKS
HILL AFB       PTSUNNY   67  30  25 SW8       29.99F
LOGAN          SUNNY     67  35  30 S8        29.97S
OGDEN          PTSUNNY   68  32  26 SW7       29.97F
PROVO AIRPORT  PTSUNNY   66  37  34 NW7       29.99R
SALT LAKE CITY PTSUNNY   69  37  30 N7        29.97S
VERNAL         PTSUNNY   63  41  44 NE14      30.02S
WENDOVER       SUNNY     72  36  26 SE10      29.94F
HEBER CITY     PTSUNNY   64  32  29 W9        30.01S
WEST JORDAN    SUNNY     68  43  40 N6        29.99F

$$

UTZ012>022-026-027-200100-

SOUTHERN UTAH

CITY           SKY/WX    TMP DP  RH WIND       PRES   REMARKS
BRYCE CANYON   CLOUDY    52  34  50 W7        30.16S
CEDAR CITY     MOSUNNY   68  30  24 SW9G18    30.02R
MILFORD        MOSUNNY   72  24  16 SW9       29.96R
MOAB/CYNLANDS  SUNNY     68  39  34 VRB7      30.00R
PRICE          PTSUNNY   62  36  37 SE12      30.06R
ST GEORGE      MOCLDY    81  30  16 N8        29.92S
KANAB            N/A     64  36  34 NW7       30.07S

$$

REGIONAL REPORTS     COLORADO/ARIZONA

CITY           SKY/WX    TMP DP  RH WIND       PRES   REMARKS
CRAIG, CO      PTSUNNY   59  38  45 E5        30.06S
GRAND JUNCTION MOSUNNY   63  42  46 W7        30.03R
RIFLE          CLOUDY    63  36  36 W14       30.03R
MONTROSE       PTSUNNY   62  39  42 N7        30.07R
CORTEZ         SUNNY     66  31  27 W9        30.05R
PAGE, AZ       MOSUNNY   72  34  24 SW9G22    29.98S
GRAND CANYON   PTSUNNY   51  43  74 NE12      30.15R
KINGMAN        SUNNY     74  35  24 SW7       29.97S
FLAGSTAFF      CLOUDY    54  32  43 W9        30.14R

$$

REGIONAL REPORTS    NEVADA/IDAHO/WYOMING

CITY           SKY/WX    TMP DP  RH WIND       PRES   REMARKS
LAS VEGAS, NV  PTSUNNY   83  29  14 SE5       29.85F
ELY            PTSUNNY   60  37  42 S10       30.08S
ELKO           SUNNY     71  24  17 W12G22    29.95F
POCATELLO, ID  MOSUNNY   68  20  16 W8        29.95F
BURLEY         MOSUNNY   70  27  20 NE3       29.90F
EVANSTON, WY   PTSUNNY   59  31  34 W16       30.08R
ROCK SPRINGS   PTSUNNY   63  29  27 W8        30.04R

$$



USA.gov is the U.S. government's official web portal to all federal, state and local government web resources and services.